STARLINK-33834, 63586

Orbit data source: Space-Track

STARLINK-33834, 63586 is a payload satellite owned by SpaceX/Seattle (US) in LEO that was launched on Mon, 14 Apr 2025 UTC via an FALCON 9 launch vehicle from the Air Force Eastern Test Range (AFETR). Payload-class satellites include a variety of spacecraft equipped with specific instruments for various scientific and technological missions. These include communications satellites like Starlink; space stations such as the ISS; scientific satellites like the Hubble; Earth observation satellites from companies like Planet Labs, Umbra, and HawkEye 360; GPS; miniature CubeSats for education and research; and military/defense satellites.

Loading next visibility...
Identifier
63586, 2025-076T
Orbit
LEO
Country
Flag of USUS
Related business
Manufacturer
SpaceX/Seattle
Mission
Operational Commercial Communications
Bus & Motor
STARLINK V2MO, Unknown motor
Mass
575 kg wet, ~530 kg dry
Launch date (UTC)
2025-04-14 (6 months ago)
Launch vehicle
FALCON 9
Launch site
Air Force Eastern Test Range (AFETR)
Object type
Payload
Rocket body
Debris
Shape & HBR
Box + 2 Pan, 17.7 m
Radar Cross Section
36.964 m², Large (>1 m²)

Expand to show TLE details & history
Last TLE update: 11 hours ago

TLE from 11 hours ago
0 STARLINK-33834
1 63586U 25076T   25291.03988738  .00041759  00000-0  15173-2 0  9998
2 63586  43.0038  47.3289 0002266 271.8789  88.1803 15.27603771 30010
Epoch: 2025-10-18T00:57Z
TLE epoch observation values (Epoch: 2025-10-18T00:57:26.269Z)
Latitude
-0.00004°
Longitude
6.19279°
Altitude
482.705 km
Speed
7.626 km/s
True Right ascension
03h 09m 18s
True Declination
0° 00' 00"
Sunlit
Object was in full shadow at epoch
Visualization orbit readout
Latitude
Unknown
Longitude
Unknown
Altitude
Unknown
Speed
Unknown
Apparent Right ascension
Unknown
Apparent Declination
Unknown
Sunlit
N/A
Visualization observer readout
Local Sidereal Time
07:13:21
Azimuth
Unknown
Elevation
Unknown
Doppler factor
Unknown
Orbital elements
Apogee altitude
486.478 km
Perigee altitude
483.367 km
Semi-major axis
6,863.059 km
Eccentricity
0.00023
Inclination
43.0038°
RAAN
47.3289°
Arg. of periapsis
271.8789°
True anomaly
88.20625°
Mean anomaly
88.1803°
Eccentric anomaly
88.19328°
Mean motion
3.81739 °/min
Orbital period
94.31 mins
BSTAR
0.0015173
Loading maneuver chart data...
Computing Atmospheric mass density...
Loading historical data...
Loading historical data...
Loading historical data...
Loading historical data...
Loading historical data...
Loading historical data...
Loading historical data...

Documentation

Showing up to 5 results
|